Weather History for KLOZ - March, 2013

Change the Weather History Date:

Sunday, March 17, 2013

  Actual Average Record
Temperature  
Mean Temperature 46 °F 48 °F  
Max Temperature 52 °F 59 °F 78 °F (1982)
Min Temperature 39 °F 36 °F 19 °F (1988)
Degree Days  
Heating Degree Days 19 17  
Month to date heating degree days 426 334  
Since 1 July heating degree days 3774 3610  
Cooling Degree Days 0 0  
Month to date cooling degree days 0 0  
Year to date cooling degree days 0 0  
Moisture  
Dew Point 39 °F    
Average Humidity 79    
Maximum Humidity 92    
Minimum Humidity 66    
Precipitation  
Precipitation 0.13 in 0.13 in 2.04 in (2002)
Month to date precipitation 2.50 2.22  
Year to date precipitation 9.29 9.47  
Sea Level Pressure  
Sea Level Pressure 29.96 in    
Wind  
Wind Speed 8 mph (NE)    
Max Wind Speed 17 mph    
Max Gust Speed 23 mph    
Visibility 8 miles    
Events Rain    
T = Trace of Precipitation, MM = Missing Value Source: NWS Daily Summary

Daily Weather History Graph

Daily Weather History Graph

Search for Another Location

Airport or City:

Trip Planner

Search our weather history database for the weather conditions in past years. The results will help you decide how hot, cold, wet, or windy it might be!

Date:

Astronomy

Mar. 17, 2013 Rise Set
Actual Time 7:43 AM EDT 7:45 PM EDT
Civil Twilight 7:18 AM EDT 8:11 PM EDT
Nautical Twilight 6:47 AM EDT 8:41 PM EDT
Astronomical Twilight 6:17 AM EDT 9:12 PM EDT
Moon 11:03 AM EDT (3/17) 12:45 AM EDT (3/17)
Length of Visible Light 12h 53m
Length of Day
12h 01m
Waxing Crescent, 31% of the Moon is Illuminated
Mar 17
Waxing Crescent
Mar 19
First Quarter
Mar 27
Full
Apr 3
Last Quarter
Apr 10
New

Hourly Weather History & Observations

Time (EDT) Temp. Windchill Dew Point Humidity Pressure Visibility Wind Dir Wind Speed Gust Speed Precip Events Conditions
12:53 AM 52.0 °F - 43.0 °F 71% 29.93 in 10.0 mi NNE 8.1 mph - N/A   Overcast
1:53 AM 50.0 °F - 43.0 °F 77% 29.92 in 9.0 mi North 3.5 mph - 0.00 in   Overcast
2:53 AM 50.0 °F - 42.1 °F 74% 29.95 in 8.0 mi NW 4.6 mph - 0.00 in   Overcast
3:53 AM 48.0 °F - 42.1 °F 80% 29.92 in 7.0 mi NNE 6.9 mph - 0.00 in   Overcast
4:53 AM 46.9 °F - 42.1 °F 83% 29.90 in 7.0 mi East 4.6 mph - 0.00 in Rain Light Rain
5:53 AM 46.0 °F 43.1 °F 42.1 °F 86% 29.94 in 5.0 mi North 5.8 mph - 0.02 in Rain Light Rain
6:53 AM 45.0 °F 39.3 °F 41.0 °F 86% 29.96 in 5.0 mi North 11.5 mph - 0.02 in   Overcast
7:53 AM 44.1 °F 40.1 °F 39.9 °F 85% 30.00 in 6.0 mi NNE 6.9 mph - 0.00 in   Overcast
8:53 AM 43.0 °F 37.2 °F 39.9 °F 89% 30.01 in 5.0 mi NNE 10.4 mph - N/A   Overcast
9:08 AM 42.8 °F 37.5 °F 39.2 °F 87% 30.01 in 5.0 mi NE 9.2 mph - N/A   Overcast
9:53 AM 42.1 °F 36.6 °F 39.0 °F 89% 30.03 in 6.0 mi NNE 9.2 mph - N/A   Overcast
10:53 AM 42.1 °F 39.2 °F 37.9 °F 85% 30.04 in 9.0 mi ENE 4.6 mph - N/A   Overcast
11:46 AM 44.6 °F 38.8 °F 39.2 °F 81% 30.02 in 10.0 mi ENE 11.5 mph - N/A   Overcast
11:53 AM 45.0 °F 41.2 °F 39.0 °F 80% 30.02 in 10.0 mi ENE 6.9 mph - N/A   Overcast
12:40 PM 46.4 °F 42.4 °F 39.2 °F 76% 30.02 in 10.0 mi ENE 8.1 mph - N/A   Overcast
12:53 PM 46.9 °F - 39.0 °F 74% 30.01 in 10.0 mi NE 10.4 mph 17.3 mph N/A   Overcast
1:40 PM 46.4 °F 41.1 °F 39.2 °F 76% 30.00 in 10.0 mi NNE 11.5 mph - N/A   Overcast
1:53 PM 46.9 °F - 39.0 °F 74% 29.99 in 10.0 mi NE 6.9 mph - N/A   Overcast
2:53 PM 48.9 °F - 39.0 °F 69% 29.96 in 10.0 mi ENE 6.9 mph - N/A   Overcast
3:04 PM 48.2 °F - 39.2 °F 71% 29.96 in 10.0 mi ENE 4.6 mph - N/A   Overcast
3:53 PM 48.9 °F - 37.9 °F 66% 29.93 in 10.0 mi North 10.4 mph - N/A   Overcast
4:53 PM 45.0 °F 38.5 °F 37.0 °F 74% 29.94 in 10.0 mi NNE 13.8 mph - N/A   Overcast
5:43 PM 42.8 °F 37.5 °F 35.6 °F 76% 29.95 in 10.0 mi NE 9.2 mph - N/A   Overcast
5:53 PM 42.1 °F 36.6 °F 36.0 °F 79% 29.95 in 10.0 mi NE 9.2 mph - N/A   Overcast
6:53 PM 39.0 °F 31.8 °F 36.0 °F 89% 29.97 in 6.0 mi NE 11.5 mph 18.4 mph 0.03 in Rain Light Rain
7:35 PM 39.2 °F 33.6 °F 35.6 °F 87% 29.94 in 6.0 mi ENE 8.1 mph - 0.03 in Rain Light Rain
7:53 PM 39.0 °F 33.4 °F 37.0 °F 93% 29.96 in 8.0 mi East 8.1 mph - 0.04 in Rain Light Rain
8:53 PM 39.9 °F 35.1 °F 37.9 °F 93% 29.95 in 10.0 mi Variable 6.9 mph - 0.00 in Rain Light Rain
9:08 PM 39.2 °F 35.0 °F 37.4 °F 93% 29.93 in 10.0 mi East 5.8 mph - 0.00 in   Overcast
9:53 PM 39.9 °F 35.1 °F 37.9 °F 93% 29.92 in 9.0 mi East 6.9 mph - 0.02 in Rain Light Rain
10:53 PM 39.9 °F 35.8 °F 37.9 °F 93% 29.93 in 10.0 mi NNE 5.8 mph - 0.00 in   Overcast
11:53 PM 39.9 °F 36.7 °F 37.9 °F 93% 29.91 in 10.0 mi NE 4.6 mph - N/A   Overcast